Flag for Germany Weather past 2 weeks in Heidenheim an der Brenz, Baden-Württemberg, Germany

Now
57 °F

Fog.


Feels Like: 57 °F
Forecast: 51 / 65 °F
Wind: 2 mph from Southwest

Location: Stoetten

Current Time: Sep 30, 2014 at 10:56:00 PM

Latest Report: Sep 30, 2014 at 10:00 PM


Visibility: 3 mi

Pressure: 30.31 "Hg

Humidity: 96%

Dew point: 56 °F

Location of Heidenheim an der BrenzLocation

Historic Weather in Heidenheim an der Brenz — Graph

°F

Heidenheim an der Brenz temperature yesterday

Maximum temperature yesterday: 71 °F (at 3:00 PM)
Minimum temperature yesterday: 60 °F (at 12:00 AM)
Average temperature yesterday: 64 °F

Past Weeks' High & Low Weather Summary

 TemperatureHumidityPressure
High71 °F (Sep 29, 3:00 PM)100% (Sep 16, 7:00 AM)30.36 "Hg (Sep 16, 7:00 AM)
Low40 °F (Sep 24, 7:00 AM)42% (Sep 29, 4:00 PM)29.84 "Hg (Sep 18, 4:00 PM)
Average55 °F86%30.10 "Hg
* Reported Sep 15 9:00 PM — Sep 30 9:00 PM, Heidenheim an der Brenz, Weather by CustomWeather, © 2014

Note: Actual official high and low records may vary slightly from our data, if they occured in-between our weather recording intervals... More about our weather records

Advertising

Heidenheim an der Brenz weather history for previous 24 hours

 ConditionsComfort  
Time TempWeatherWind HumidityBarometerVisibility
9:00 PM
Sep 30
57 °FOvercast.1 mph95%30.30 "Hg16 mi
8:00 PM58 °FOvercast.1 mph92%30.29 "Hg17 mi
7:00 PM59 °FOvercast.2 mph90%30.29 "Hg22 mi
6:00 PM60 °FOvercast.2 mph86%30.28 "Hg25 mi
5:00 PM60 °FOvercast.3 mph83%30.28 "Hg28 mi
4:00 PM61 °FOvercast.3 mph82%30.28 "Hg25 mi
3:00 PM60 °FOvercast.3 mph80%30.29 "Hg25 mi
2:00 PM61 °FOvercast.3 mph80%30.29 "Hg25 mi
1:00 PM61 °FOvercast.2 mph78%30.29 "Hg37 mi
12:00 PM61 °FOvercast.2 mph78%30.29 "Hg40 mi
11:00 AM60 °FOvercast.2 mph79%30.29 "Hg40 mi
10:00 AM59 °FPartly sunny.2 mph80%30.29 "Hg40 mi
9:00 AM58 °FOvercast.1 mph84%30.29 "Hg40 mi
8:00 AM59 °FOvercast.2 mph76%30.28 "Hg37 mi
7:00 AM61 °FOvercast.2 mph68%30.26 "Hg34 mi
6:00 AM60 °FOvercast.1 mph72%30.27 "Hg28 mi
5:00 AM59 °FOvercast.2 mph76%30.27 "Hg19 mi
4:00 AM60 °FOvercast.2 mph76%30.26 "Hg22 mi
3:00 AM59 °FOvercast.3 mph78%30.28 "Hg19 mi
2:00 AM58 °FOvercast.5 mph77%30.28 "Hg22 mi
1:00 AM59 °FOvercast.3 mph76%30.28 "Hg19 mi
12:00 AM61 °FOvercast.2 mph76%30.27 "Hg17 mi
11:00 PM
Sep 29
61 °FOvercast.2 mph73%30.27 "Hg19 mi
10:00 PM62 °FOvercast.2 mph69%30.26 "Hg28 mi
Weather by CustomWeather, © 2014

See weather overviewHow to use our weather pages